Location: Newark
(36.0797°N, 3.9744°E)
Time: 01:58:30
(UTC+00:00)

Explorer 7 - All Passes

Search period start: 09 December 2019 00:00
Search period end: 19 December 2019 00:00
Orbit: 485 x 680 km, 50.3° (Epoch: 08 December)

Date Brightness Start Highest point End Pass type
(mag) Time Alt. Az. Time Alt. Az. Time Alt. Az.
09 Dec - 14:43:51 10° SSW 14:48:22 44° SE 14:53:01 10° ENE daylight
09 Dec - 16:24:33 10° W 16:29:04 37° NNW 16:33:39 10° NE daylight
09 Dec - 18:07:43 10° NW 18:10:49 16° N 18:13:54 10° NNE visible
09 Dec - 19:49:53 10° NNW 19:53:01 17° N 19:56:06 10° NE visible
09 Dec - 21:30:10 10° NW 21:34:42 40° NNE 21:39:02 10° ESE night (unlit)
09 Dec - 23:11:00 10° WNW 23:15:16 35° SW 23:19:18 10° SSE night (unlit)
10 Dec - 13:12:36 10° SE 13:13:21 10° ESE 13:14:05 10° ESE daylight
10 Dec - 14:48:28 10° SW 14:53:13 73° SE 14:58:08 10° NE daylight
10 Dec - 16:30:04 10° W 16:34:14 28° NNW 16:38:27 10° NE daylight
10 Dec - 18:13:21 10° NW 18:16:12 15° N 18:19:01 10° NNE visible
10 Dec - 19:54:47 10° NNW 19:58:21 20° NNE 20:01:49 10° ENE visible
10 Dec - 21:35:01 10° NW 21:39:46 61° NE 21:44:17 10° ESE night (unlit)
10 Dec - 23:16:30 10° W 23:20:00 21° SW 23:23:20 10° S night (unlit)
11 Dec - 13:14:47 10° S 13:18:00 18° SE 13:21:18 10° E daylight
11 Dec - 14:53:23 10° WSW 14:58:09 72° NW 15:03:05 10° NE daylight
11 Dec - 16:35:43 10° WNW 16:39:29 22° NNW 16:43:17 10° NNE daylight
11 Dec - 18:18:48 10° NNW 18:21:35 15° N 18:24:21 10° NE visible
11 Dec - 19:59:37 10° NNW 20:03:37 25° NNE 20:07:30 10° ENE visible
11 Dec - 21:39:55 10° NW 21:44:45 85° SW 21:49:18 10° SE night (unlit)
11 Dec - 23:22:54 10° WSW 23:24:39 12° SW 23:26:21 10° SSW night (unlit)
12 Dec - 13:18:37 10° SSW 13:22:42 31° SE 13:26:57 10° ENE daylight
12 Dec - 14:58:34 10° WSW 15:03:11 47° NNW 15:07:57 10° NE daylight
12 Dec - 16:41:26 10° WNW 16:44:47 18° NNW 16:48:09 10° NNE daylight
12 Dec - 18:24:00 10° NNW 18:26:59 16° N 18:29:55 10° NE visible
12 Dec - 20:04:25 10° NW 20:08:49 32° NNE 20:13:04 10° E visible
12 Dec - 21:44:58 10° WNW 21:49:38 52° SW 21:54:02 10° SSE night (unlit)
13 Dec - 13:22:59 10° SSW 13:27:30 51° SE 13:32:13 10° ENE daylight
13 Dec - 15:03:57 10° W 15:08:18 33° NNW 15:12:46 10° NE daylight
13 Dec - 16:47:08 10° NW 16:50:09 16° N 16:53:09 10° NNE daylight
13 Dec - 18:29:01 10° NNW 18:32:20 18° NNE 18:35:37 10° NE visible
13 Dec - 20:09:15 10° NW 20:13:57 46° NNE 20:18:28 10° ESE visible
13 Dec - 21:50:14 10° WNW 21:54:25 31° SW 21:58:25 10° SSE night (unlit)
14 Dec - 11:50:38 10° SSE 11:52:27 12° SE 11:54:18 10° E daylight
14 Dec - 13:27:43 10° SW 13:32:22 84° SE 13:37:16 10° NE daylight
14 Dec - 15:09:30 10° WNW 15:13:30 25° NNW 15:17:34 10° NNE daylight
14 Dec - 16:52:43 10° NW 16:55:31 15° N 16:58:20 10° NNE visible
14 Dec - 18:33:53 10° NNW 18:37:39 21° NNE 18:41:20 10° ENE visible
14 Dec - 20:14:06 10° NW 20:18:58 71° NE 20:23:39 10° ESE visible
14 Dec - 21:55:53 10° W 21:59:08 18° SW 22:02:17 10° S night (unlit)
15 Dec - 11:53:41 10° S 11:57:07 21° SE 12:00:41 10° E daylight
15 Dec - 13:32:43 10° WSW 13:37:21 63° NW 13:42:12 10° NE daylight
15 Dec - 15:15:11 10° WNW 15:18:46 20° NNW 15:22:24 10° NNE daylight
15 Dec - 16:58:04 10° NNW 17:00:55 15° N 17:03:45 10° NE visible
15 Dec - 18:38:42 10° NW 18:42:54 27° NNE 18:46:59 10° E visible
15 Dec - 20:19:03 10° NW 20:23:56 74° SW 20:28:35 10° SE visible
15 Dec - 22:03:09 10° WSW 22:03:46 10° WSW 22:04:23 10° SW night (unlit)
16 Dec - 11:57:42 10° SSW 12:01:51 35° SE 12:06:12 10° ENE daylight
16 Dec - 13:37:58 10° WSW 13:42:24 42° NNW 13:47:02 10° NE daylight
16 Dec - 15:20:55 10° NW 15:24:05 17° NNW 15:27:18 10° NNE daylight
16 Dec - 17:03:12 10° NNW 17:06:17 16° N 17:09:23 10° NE visible
16 Dec - 18:43:30 10° NW 18:48:04 36° NNE 18:52:30 10° E visible
16 Dec - 20:24:09 10° WNW 20:28:47 44° SW 20:33:13 10° SSE visible
17 Dec - 12:02:12 10° SW 12:06:40 59° SE 12:11:23 10° ENE daylight
17 Dec - 13:43:24 10° W 13:47:33 30° NNW 13:51:50 10° NE daylight
17 Dec - 15:26:35 10° NW 15:29:27 15° N 15:32:22 10° NNE daylight
17 Dec - 17:08:09 10° NNW 17:11:38 19° NNE 17:15:06 10° ENE visible
17 Dec - 18:48:20 10° NW 18:53:09 53° NE 18:57:50 10° ESE visible
17 Dec - 20:29:29 10° WNW 20:33:33 27° SW 20:37:28 10° S visible
18 Dec - 10:29:14 10° SSE 10:31:35 14° SE 10:33:58 10° E daylight
18 Dec - 12:07:01 10° SW 12:11:33 84° NW 12:16:23 10° NE daylight
18 Dec - 13:49:00 10° WNW 13:52:46 23° NNW 13:56:39 10° NNE daylight
18 Dec - 15:32:04 10° NW 15:34:51 15° N 15:37:37 10° NE daylight
18 Dec - 17:13:00 10° NNW 17:16:55 23° NNE 17:20:48 10° ENE visible
18 Dec - 18:53:13 10° NW 18:58:09 81° NE 19:02:56 10° SE visible
18 Dec - 20:35:20 10° W 20:38:14 16° SW 20:41:06 10° SSW visible
